CAPE
473 529 638 522 391 651 699 468 278 420 540 315 234 90 33 45 10 31 29 50 0 244 0 4 1271 572 936 1235 893 1067 1212 880 519 980 992 1113 1380 986 264 98 100 101 103 90 70 65 72 114 204 319 367 424 512 559 559 724 893 904 970 957 988 1014 870 580 399 305 258 216 207 262 238 161 122 104
830 535 493 396 370 565 476 394 303 676 693 348 267 233 195 313 60 27 11 80 141 98 209 2 318 712 1242 1040 1044 919 850 629 802 1087 1174 724 805 497 73 56 62 75 79 75 66 61 52 45 48 76 155 244 290 363 472 537 604 612 699 719 746 882 953 787 602 522 427 300 218 192 206 195 196 195
833 675 510 593 422 606 315 354 422 637 663 564 367 344 357 423 60 137 152 24 480 9 130 148 19 265 703 356 484 588 636 743 857 983 1004 988 702 72 775 137 82 77 84 82 73 59 40 15 8 8 26 82 298 442 439 606 604 686 646 697 773 819 836 783 627 623 613 553 472 373 330 318 285 230
740 680 554 739 589 680 432 372 424 770 692 676 586 433 397 430 256 261 272 139 95 402 45 235 560 327 439 656 547 464 490 1070 462 996 1101 1428 574 1348 884 742 104 106 70 66 55 29 8 0 0 1 14 56 134 379 488 622 682 588 526 480 430 372 368 264 282 359 348 369 384 392 404 401 389 349
748 704 626 715 623 749 531 464 342 318 666 716 554 680 608 444 456 360 291 269 327 800 245 292 294 656 578 534 582 403 310 630 1076 642 895 1166 786 752 776 762 590 82 45 30 20 13 6 1 0 2 8 38 147 283 332 268 145 83 118 152 54 47 75 46 80 133 173 196 200 224 233 281 339 400
762 808 818 770 704 832 557 520 446 350 399 522 354 566 320 350 559 463 438 409 338 331 811 533 661 486 560 312 944 506 339 282 499 624 991 1046 889 970 831 658 787 511 153 104 18 12 4 0 0 0 0 0 21 45 76 24 2 0 0 0 0 0 0 0 0 1 4 15 44 71 127 188 228 274
896 802 837 757 714 681 546 641 514 362 455 395 380 432 400 481 407 679 549 481 463 285 472 765 440 546 850 460 533 818 604 656 878 846 838 751 1040 1268 1201 793 408 626 271 137 130 116 95 0 0 0 0 0 0 0 0 0 0 0 0 0 0 0 0 0 0 0 0 0 0 3 9 14 42 69
956 833 873 764 710 700 589 678 635 604 586 694 634 550 755 653 559 904 805 687 437 481 313 917 353 538 540 744 734 912 885 600 858 871 1159 1274 1257 1180 1069 1110 944 790 543 201 140 166 72 0 0 0 0 0 0 0 0 0 0 0 0 0 0 0 0 0 0 0 0 0 0 0 0 0 0 2
1080 906 906 916 872 834 655 766 759 687 691 617 566 508 783 736 755 924 824 877 714 604 471 446 826 797 691 560 670 878 662 772 997 1373 1319 1153 937 877 688 429 563 492 238 103 52 46 5 2 4 0 0 0 0 0 0 0 0 0 0 0 0 0 0 0 0 0 0 0 0 0 0 0 0 0
1108 1005 971 936 1008 896 766 773 837 866 675 624 620 578 754 788 811 964 954 902 1035 784 636 569 483 865 488 604 667 805 978 705 796 1255 1180 1048 1128 1143 851 553 407 398 439 553 867 604 281 165 1 1 2 0 0 0 0 0 0 0 0 0 0 0 0 0 0 0 0 0 0 0 0 0 0 0
1114 959 952 949 983 916 838 762 933 977 714 732 634 686 761 885 932 869 869 1074 1069 1018 846 741 611 524 666 653 636 942 749 896 772 775 855 828 993 953 632 785 666 557 490 496 158 172 176 87 82 106 0 0 0 0 0 0 0 0 0 0 0 0 0 0 0 0 0 0 0 0 0 0 0 0
934 914 880 808 870 874 887 806 930 960 855 818 732 470 442 780 900 769 894 975 846 905 844 652 470 610 585 740 698 831 664 710 801 692 583 565 602 971 1000 770 592 563 598 489 452 328 134 163 152 1 0 3 0 0 0 0 0 0 0 0 0 0 0 0 0 0 0 0 0 0 0 0 0 0
993 964 864 769 740 808 701 556 688 740 747 735 652 640 599 815 940 930 870 920 815 835 700 656 682 592 569 522 642 683 786 781 814 1013 498 508 628 674 668 922 876 490 586 698 693 912 813 593 746 740 790 779 306 19 0 0 0 0 0 0 0 0 0 0 0 0 0 0 0 0 0 0 0 0
1074 1056 994 892 755 588 584 648 703 766 817 853 886 845 780 650 768 887 930 871 832 679 614 475 363 306 275 297 577 508 582 888 889 568 592 553 584 556 564 626 1082 802 581 593 754 851 854 654 578 685 572 332 140 22 0 3 0 0 0 0 0 0 0 0 0 0 0 0 0 0 0 0 0 0
1184 1174 1120 1038 997 940 842 795 857 896 939 992 1046 1023 889 711 544 823 872 756 712 766 546 395 442 272 300 353 448 502 336 426 457 484 620 599 288 283 547 562 578 820 595 504 514 655 903 705 574 420 259 98 65 44 43 0 0 0 0 0 0 0 0 0 0 0 0 0 0 0 0 0 0 0
1250 1288 1257 1173 1088 1066 1053 1032 1036 1080 1048 1039 1102 1067 938 809 694 461 688 785 914 790 532 440 406 398 418 361 469 236 102 360 488 634 585 510 221 344 544 535 403 734 469 412 433 426 556 574 444 349 304 162 94 28 6 0 0 0 0 0 0 0 0 0 0 0 0 0 0 0 0 0 0 0
1534 1468 1366 1308 1215 1181 1186 1244 1277 1287 1179 1168 1249 1185 937 840 688 477 324 374 746 748 880 448 496 520 326 325 346 395 444 538 508 334 170 262 410 446 364 248 194 481 378 396 270 126 206 179 92 62 77 102 126 43 0 0 0 0 0 0 0 0 0 0 0 0 0 0 0 0 0 0 0 0
1702 1740 1510 1478 1370 1324 1384 1419 1451 1438 1244 1143 1158 1013 767 707 656 546 386 274 230 357 429 540 402 866 616 410 553 537 412 566 482 300 170 288 196 156 182 253 243 299 361 308 54 29 41 38 21 2 0 0 3 41 5 0 0 0 0 0 0 0 0 0 0 0 0 0 0 0 0 0 0 0
1710 1711 1623 1570 1493 1465 1508 1543 1637 1525 1351 1273 1250 1106 878 774 584 376 312 292 168 140 313 434 191 340 474 442 582 534 264 258 264 138 193 295 165 141 133 88 181 165 220 104 28 6 0 0 0 0 0 0 0 0 0 0 0 0 0 0 0 0 0 0 0 0 0 0 0 0 0 0 0 0
1736 1624 1689 1673 1615 1590 1624 1698 1790 1752 1559 1348 1147 897 686 596 537 457 421 326 115 562 160 100 53 93 513 351 575 306 153 144 99 46 25 54 23 49 33 4 0 0 1 30 2 1 0 0 0 0 0 0 0 0 0 0 0 0 0 0 0 0 0 0 0 0 0 0 0 0 0 0 0 0
1655 1724 1771 1740 1718 1706 1781 1926 1989 1845 1530 1334 1119 864 748 634 572 540 414 272 0 64 0 0 0 0 0 0 0 0 0 396 62 21 4 4 0 0 0 0 0 0 0 0 0 0 0 0 0 0 0 0 0 0 0 0 0 0 0 0 0 0 0 0 0 0 0 0 0 0 0 0 0 0
1733 1817 1849 1834 1791 1888 1998 2026 2078 1838 1600 1310 1109 977 777 640 565 466 367 336 214 0 0 0 0 0 0 0 0 0 0 0 0 3 8 0 0 0 0 0 0 0 0 0 0 0 0 0 0 0 0 0 0 0 0 0 0 0 0 0 0 0 0 0 0 0 0 0 0 0 0 0 0 0
1806 1888 1908 1911 1991 2106 2148 2161 2105 1905 1714 1398 968 698 616 544 449 431 344 294 67 48 14 0 0 0 0 0 0 0 0 0 0 0 0 0 0 0 0 0 0 0 0 0 0 0 0 0 0 0 0 0 0 0 0 0 0 0 0 0 0 0 0 0 0 0 0 0 0 0 0 0 0 2
1772 1891 1972 2008 2228 2263 2256 2229 2051 1810 1638 1513 947 619 539 448 429 370 357 232 125 66 0 0 0 0 0 0 0 0 0 0 0 0 0 0 0 0 0 0 0 0 0 0 0 0 0 0 0 0 0 0 0 0 0 0 0 0 0 0 0 0 0 0 0 0 0 0 0 0 0 0 0 4
1819 1964 1993 2158 2307 2277 2310 2233 2062 1776 1431 1119 900 694 510 430 529 290 296 49 5 8 1 0 0 0 0 0 0 0 0 0 0 0 0 0 0 0 0 0 0 0 0 0 0 0 0 0 0 0 0 0 0 0 0 0 0 0 0 0 0 0 0 0 0 0 1 1 0 0 0 0 0 12
1848 1973 2090 2225 2352 2410 2367 2188 1983 1574 1228 938 717 558 377 280 80 330 111 15 5 33 1 0 0 0 0 0 0 0 0 0 0 0 0 0 0 0 0 0 0 0 0 100 0 0 0 0 0 0 0 0 0 0 0 0 0 0 0 0 0 0 0 0 0 1 31 126 186 82 101 0 0 0
1942 2067 2177 2399 2554 2568 2423 2129 1682 1112 814 642 499 374 364 379 335 224 70 10 20 34 2 1 3 0 0 0 0 0 0 0 0 0 0 0 0 0 0 0 0 0 0 0 0 0 0 0 0 0 0 0 0 0 0 0 0 0 0 0 0 0 0 0 0 39 87 109 114 31 8 0 0 0
2064 2137 2392 2582 2709 2498 2134 1613 1233 969 702 472 372 357 400 362 300 202 80 47 66 16 0 2 0 0 0 0 0 0 0 0 0 0 0 0 0 0 0 0 0 0 0 0 0 0 0 0 0 0 0 0 0 0 0 0 0 0 0 0 0 0 0 0 42 89 128 70 82 88 105 112 104 47
2157 2410 2642 2782 2613 2200 1693 1315 1081 811 575 410 358 381 406 399 310 175 31 36 57 27 28 0 0 0 0 0 0 0 0 0 0 0 0 0 0 0 0 0 0 0 0 0 0 0 0 0 0 0 0 0 0 0 0 0 0 0 0 0 0 0 0 0 7 53 88 51 66 84 100 110 95 75
2339 2646 2764 2607 2180 1713 1321 1144 926 724 510 368 350 358 372 349 277 66 64 80 60 90 13 0 0 0 0 0 0 0 0 0 0 0 1 0 0 0 0 0 0 0 0 0 0 0 0 0 0 0 0 0 0 0 0 0 0 0 0 0 0 0 0 18 44 44 56 52 52 72 43 29 46 49
2513 2679 2450 2106 1745 1355 1062 959 781 611 444 357 327 350 342 294 172 64 102 80 118 40 0 0 0 0 0 0 0 0 0 0 4 1 1 0 0 0 0 0 0 0 0 0 0 0 0 0 0 0 0 0 0 0 0 0 0 0 0 0 0 0 0 0 2 24 30 28 32 66 13 2 6 10
2708 2492 2249 2003 1489 982 816 675 561 468 390 330 328 328 304 160 0 0 0 10 87 24 0 0 0 0 0 0 0 0 0 0 4 0 0 0 0 0 0 0 0 0 0 0 0 0 0 0 0 0 0 0 0 0 0 0 0 0 0 0 0 0 0 0 0 0 4 30 41 58 16 3 2 1
2500 2319 2134 1778 1022 753 600 466 422 385 343 301 270 284 139 0 0 0 0 0 1 0 0 0 0 0 0 0 0 0 0 2 2 0 0 0 0 0 0 0 0 0 0 0 0 0 0 0 0 0 0 0 0 0 0 0 0 0 0 0 0 0 0 0 0 2 81 57 56 28 25 5 0 1
2274 2065 1890 1452 657 522 424 372 328 279 4 185 199 8 0 0 0 0 0 0 0 0 0 0 0 0 0 0 0 0 0 6 0 0 0 0 0 0 0 0 0 0 0 0 0 0 0 0 0 0 0 0 0 0 0 0 0 0 0 0 0 0 0 0 0 22 49 35 18 12 4 0 0 0
2149 2008 1736 852 453 342 289 159 48 0 0 186 7 0 0 0 0 0 0 0 0 0 0 0 0 0 0 0 0 0 0 0 0 0 0 0 0 0 0 0 0 0 0 0 0 0 0 0 0 0 0 0 0 0 0 0 0 0 0 0 0 0 0 0 0 0 1 6 8 10 2 0 0 0
1984 1787 1230 410 308 216 49 0 0 0 144 0 0 1 1 0 0 0 0 0 0 0 0 0 0 0 0 0 0 0 0 0 0 0 0 0 0 0 0 0 0 0 0 0 0 0 0 0 0 0 0 0 0 0 0 28 0 0 0 0 0 0 0 0 0 0 1 2 3 4 0 0 0 0
1650 1493 582 270 50 12 0 0 88 0 0 0 0 0 0 0 0 0 0 0 0 0 0 0 0 0 0 0 0 0 0 0 0 0 0 0 0 0 0 0 0 0 0 0 0 0 0 0 0 0 0 0 0 0 0 0 16 0 2 2 0 0 1 1 4 2 0 0 1 0 2 0 0 0
1442 723 276 0 17 0 0 0 124 0 0 0 0 0 0 0 0 0 0 0 0 0 0 0 0 0 0 0 0 0 0 0 0 0 0 0 0 0 0 0 0 0 0 0 0 0 0 0 0 0 0 0 0 0 0 0 0 4 0 8 6 1 0 5 0 0 0 0 0 0 1 0 0 0
620 356 261 0 0 0 0 0 0 0 0 0 0 0 0 0 0 0 0 0 0 0 0 0 0 0 0 0 0 0 0 0 0 0 0 0 0 0 0 0 0 0 0 0 0 0 0 0 0 0 0 0 0 0 0 0 0 0 0 4 16 10 2 0 0 0 0 0 0 0 0 0 0 0
331 0 0 0 0 28 0 0 0 0 0 0 0 0 0 0 0 0 0 0 0 0 0 0 0 0 0 0 0 0 0 0 0 0 0 0 0 0 0 0 0 0 0 0 0 0 0 0 0 0 0 0 0 0 0 0 0 0 0 11 16 7 1 0 0 0 0 0 0 0 0 0 0 0
0 0 0 0 37 22 0 0 0 0 0 0 0 0 0 0 0 0 0 0 0 0 0 0 0 0 0 0 0 0 0 0 0 0 0 0 0 0 0 0 0 0 0 0 0 0 0 0 0 0 0 0 0 0 0 4 12 1 0 0 0 0 0 0 0 0 0 0 0 0 0 0 0 0
0 0 0 0 0 0 0 0 0 0 0 0 0 0 0 0 0 0 0 0 0 0 0 0 0 0 0 0 0 0 0 0 0 0 0 0 0 0 0 0 0 0 0 0 0 0 0 0 0 0 0 0 0 0 0 0 0 0 0 0 0 0 0 0 0 0 0 0 0 0 0 0 0 0
10 0 0 0 65 8 0 0 0 0 0 0 0 0 0 0 0 0 0 0 0 0 0 0 0 0 0 0 0 0 0 0 0 0 0 0 0 0 0 0 0 0 0 0 0 0 0 0 0 0 0 0 0 0 0 0 0 0 1 0 0 0 0 0 0 0 0 0 0 0 0 0 1 2
0 0 0 0 0 0 0 0 0 0 0 0 0 0 0 0 0 0 0 0 0 0 0 0 0 0 0 0 0 0 0 0 0 0 0 0 0 0 0 0 0 0 0 0 0 0 0 0 0 0 0 0 0 0 0 0 0 0 0 0 0 0 0 0 0 0 0 0 0 0 0 0 0 0
0 88 56 0 0 0 0 0 0 0 0 0 0 0 0 0 0 0 0 0 0 0 0 0 0 0 0 0 0 0 0 0 0 0 0 0 0 0 0 0 0 0 0 0 0 0 0 0 0 0 0 0 0 0 0 0 0 0 0 2 0 0 0 0 0 0 0 0 0 0 0 0 0 0
Wind_Speed
19 19 21 20 18 17 17 17 16 15 14 13 13 nan nan nan nan nan nan nan nan 18 nan nan 20 18 20 20 22 23 22 23 23 24 26 27 27 31 31 nan 28 27 26 nan nan nan nan 24 24 24 24 25 26 27 28 28 27 27 26 26 26 26 26 26 25 24 24 23 23 23 23 22 23 23
19 21 21 21 19 18 18 19 19 18 17 15 14 14 13 13 nan nan nan nan 14 nan 17 nan 16 19 20 21 23 22 23 26 24 27 28 29 30 31 nan nan nan nan nan nan nan nan nan nan nan nan 25 25 26 27 28 29 29 29 28 28 28 28 28 28 28 27 26 25 24 24 23 22 23 24
20 22 22 21 19 19 19 20 21 21 19 17 16 16 16 15 nan 14 15 nan 16 nan 15 15 nan 18 20 20 20 21 22 26 26 28 29 30 32 nan 32 34 nan nan nan nan nan nan nan nan nan nan nan nan 28 28 29 29 29 29 29 29 29 29 30 31 31 30 29 28 27 26 24 24 24 24
20 21 22 22 21 21 21 22 23 22 21 19 18 17 18 18 18 17 17 17 nan 18 nan 13 14 15 18 19 19 20 22 26 28 28 29 31 34 33 33 40 38 36 nan nan nan nan nan nan nan nan nan nan 29 29 29 30 30 30 30 30 31 31 31 32 32 33 32 31 30 30 28 26 25 24
21 22 22 23 23 23 23 23 24 23 23 21 19 19 19 19 20 20 20 19 18 19 20 17 16 18 18 20 21 21 22 25 28 29 29 31 31 31 32 34 41 nan nan nan nan nan nan nan nan nan nan nan 30 31 31 32 32 nan 33 32 nan nan nan nan nan 33 33 33 33 33 33 32 30 28
22 23 23 23 24 24 25 25 25 24 23 23 22 22 22 21 21 22 21 21 20 19 23 22 22 20 22 20 22 22 22 23 26 28 31 32 32 32 32 33 35 43 38 37 nan nan nan nan nan nan nan nan nan nan nan nan nan nan nan nan nan nan nan nan nan nan nan nan nan nan 36 37 36 35
24 24 24 24 24 24 25 26 26 25 25 24 24 25 24 23 22 23 23 21 21 21 22 24 22 23 24 24 23 25 26 26 27 28 31 32 34 35 35 34 35 43 40 38 37 36 nan nan nan nan nan nan nan nan nan nan nan nan nan nan nan nan nan nan nan nan nan nan nan nan nan nan nan nan
25 25 24 24 25 26 26 27 27 26 25 25 25 26 26 25 23 23 23 22 20 21 22 26 26 26 25 27 28 28 29 29 30 31 33 36 36 37 38 38 37 40 41 38 37 37 nan nan nan nan nan nan nan nan nan nan nan nan nan nan nan nan nan nan nan nan nan nan nan nan nan nan nan nan
26 26 25 24 25 26 26 27 26 26 27 26 26 26 26 25 24 23 23 22 22 21 22 24 27 28 29 29 29 31 31 33 34 35 36 38 39 39 39 39 40 40 40 38 nan nan nan nan nan nan nan nan nan nan nan nan nan nan nan nan nan nan nan nan nan nan nan nan nan nan nan nan nan nan
27 26 25 25 26 26 27 26 26 27 29 28 27 27 27 26 25 25 24 23 23 23 22 23 24 29 29 30 32 34 34 33 34 37 40 41 43 42 40 41 42 42 42 41 43 46 45 46 nan nan nan nan nan nan nan nan nan nan nan nan nan nan nan nan nan nan nan nan nan nan nan nan nan nan
26 26 26 26 26 27 27 27 28 30 31 29 28 28 27 26 26 26 25 25 25 25 24 24 25 26 29 30 31 35 36 36 37 38 39 39 43 45 42 42 45 45 44 43 45 41 40 nan nan 39 nan nan nan nan nan nan nan nan nan nan nan nan nan nan nan nan nan nan nan nan nan nan nan nan
25 26 26 27 27 27 27 29 30 33 29 26 27 26 25 25 26 26 26 26 26 25 26 26 26 28 29 31 33 36 38 39 40 42 41 40 40 43 45 45 45 45 44 41 41 46 45 43 42 nan nan nan nan nan nan nan nan nan nan nan nan nan nan nan nan nan nan nan nan nan nan nan nan nan
24 25 25 26 27 28 29 32 30 30 28 26 27 27 26 26 27 27 27 26 26 26 26 26 28 28 30 32 34 37 39 41 40 45 45 43 43 43 43 45 47 44 42 40 38 37 38 37 36 35 36 37 37 nan nan nan nan nan nan nan nan nan nan nan nan nan nan nan nan nan nan nan nan nan
24 24 24 24 28 28 29 30 31 31 31 29 26 26 25 26 27 28 28 27 26 26 27 28 28 28 30 33 35 36 38 42 45 46 47 46 45 44 43 42 44 45 41 38 35 34 36 36 35 35 34 35 36 nan nan nan nan nan nan nan nan nan nan nan nan nan nan nan nan nan nan nan nan nan
23 23 23 22 26 27 26 28 32 33 33 31 29 26 26 26 26 28 28 26 26 27 28 29 29 29 30 32 35 38 39 42 45 44 46 46 45 44 42 39 41 44 42 38 34 33 34 35 33 33 32 nan nan nan nan nan nan nan nan nan nan nan nan nan nan nan nan nan nan nan nan nan nan nan
22 23 23 23 23 26 27 28 30 31 32 31 30 28 27 27 27 27 27 27 28 29 29 30 30 31 33 33 37 39 41 42 45 46 47 47 45 43 41 39 37 43 42 36 34 31 33 34 32 32 33 34 nan nan nan nan nan nan nan nan nan nan nan nan nan nan nan nan nan nan nan nan nan nan
23 24 23 22 23 25 31 29 29 30 31 31 30 28 28 28 29 29 28 27 27 30 31 30 31 33 33 36 38 41 43 46 45 45 46 46 46 45 42 39 38 40 39 37 33 30 31 32 nan nan nan 33 34 nan nan nan nan nan nan nan nan nan nan nan nan nan nan nan nan nan nan nan nan nan
23 24 24 23 24 26 31 30 31 31 31 31 29 29 29 30 32 32 31 31 30 30 31 32 33 36 39 39 41 45 46 46 45 46 45 46 45 43 41 38 36 36 39 36 nan nan nan nan nan nan nan nan nan nan nan nan nan nan nan nan nan nan nan nan nan nan nan nan nan nan nan nan nan nan
24 24 23 23 25 29 31 32 33 31 32 32 31 31 32 34 35 35 35 35 34 35 34 34 34 37 40 41 43 46 45 45 45 45 44 45 44 42 39 nan 36 34 37 36 nan nan nan nan nan nan nan nan nan nan nan nan nan nan nan nan nan nan nan nan nan nan nan nan nan nan nan nan nan nan
25 25 25 24 26 30 32 36 38 33 31 32 33 35 35 37 38 38 37 36 35 34 34 34 nan nan 41 43 43 44 44 46 nan nan nan nan nan nan nan nan nan nan nan nan nan nan nan nan nan nan nan nan nan nan nan nan nan nan nan nan nan nan nan nan nan nan nan nan nan nan nan nan nan nan
27 26 25 26 28 31 32 39 41 36 34 33 35 36 37 39 40 41 40 38 nan nan nan nan nan nan nan nan nan nan nan 43 nan nan nan nan nan nan nan nan nan nan nan nan nan nan nan nan nan nan nan nan nan nan nan nan nan nan nan nan nan nan nan nan nan nan nan nan nan nan nan nan nan nan
27 27 29 28 30 32 34 42 40 37 36 34 37 37 39 41 42 43 42 39 37 nan nan nan nan nan nan nan nan nan nan nan nan nan nan nan nan nan nan nan nan nan nan nan nan nan nan nan nan nan nan nan nan nan nan nan nan nan nan nan nan nan nan nan nan nan nan nan nan nan nan nan nan nan
25 27 29 31 32 34 38 44 40 39 37 35 38 39 40 42 44 44 45 42 nan nan nan nan nan nan nan nan nan nan nan nan nan nan nan nan nan nan nan nan nan nan nan nan nan nan nan nan nan nan nan nan nan nan nan nan nan nan nan nan nan nan nan nan nan nan nan nan nan nan nan nan nan nan
28 27 27 31 33 37 43 43 42 43 43 40 39 40 41 43 45 46 45 43 43 nan nan nan nan nan nan nan nan nan nan nan nan nan nan nan nan nan nan nan nan nan nan nan nan nan nan nan nan nan nan nan nan nan nan nan nan nan nan nan nan nan nan nan nan nan nan nan nan nan nan nan nan nan
30 31 30 31 37 41 42 43 43 45 46 45 43 43 42 43 47 49 46 nan nan nan nan nan nan nan nan nan nan nan nan nan nan nan nan nan nan nan nan nan nan nan nan nan nan nan nan nan nan nan nan nan nan nan nan nan nan nan nan nan nan nan nan nan nan nan nan nan nan nan nan nan nan nan
32 34 35 34 41 44 43 43 45 47 48 49 46 46 47 51 nan 49 47 nan nan nan nan nan nan nan nan nan nan nan nan nan nan nan nan nan nan nan nan nan nan nan nan 43 nan nan nan nan nan nan nan nan nan nan nan nan nan nan nan nan nan nan nan nan nan nan nan 23 24 nan 26 nan nan nan
36 40 39 39 46 46 45 45 47 47 50 52 49 54 55 56 55 52 nan nan nan nan nan nan nan nan nan nan nan nan nan nan nan nan nan nan nan nan nan nan nan nan nan nan nan nan nan nan nan nan nan nan nan nan nan nan nan nan nan nan nan nan nan nan nan nan nan 25 25 nan nan nan nan nan
41 44 43 45 50 49 49 50 50 50 54 54 57 57 56 57 53 48 nan nan nan nan nan nan nan nan nan nan nan nan nan nan nan nan nan nan nan nan nan nan nan nan nan nan nan nan nan nan nan nan nan nan nan nan nan nan nan nan nan nan nan nan nan nan nan nan 26 nan nan nan 27 27 29 nan
45 49 53 57 54 53 56 55 53 54 57 59 56 56 59 57 48 48 nan nan nan nan nan nan nan nan nan nan nan nan nan nan nan nan nan nan nan nan nan nan nan nan nan nan nan nan nan nan nan nan nan nan nan nan nan nan nan nan nan nan nan nan nan nan nan nan nan nan nan nan 28 29 nan nan
57 59 61 60 60 61 61 59 55 54 53 52 52 56 57 51 49 nan nan nan nan nan nan nan nan nan nan nan nan nan nan nan nan nan nan nan nan nan nan nan nan nan nan nan nan nan nan nan nan nan nan nan nan nan nan nan nan nan nan nan nan nan nan nan nan nan nan nan nan nan nan nan nan nan
62 63 63 61 62 62 65 64 60 58 53 47 48 49 50 50 50 nan 48 nan 48 nan nan nan nan nan nan nan nan nan nan nan nan nan nan nan nan nan nan nan nan nan nan nan nan nan nan nan nan nan nan nan nan nan nan nan nan nan nan nan nan nan nan nan nan nan nan nan nan nan nan nan nan nan
65 65 67 70 67 67 67 67 64 59 54 52 54 53 51 51 nan nan nan nan nan nan nan nan nan nan nan nan nan nan nan nan nan nan nan nan nan nan nan nan nan nan nan nan nan nan nan nan nan nan nan nan nan nan nan nan nan nan nan nan nan nan nan nan nan nan nan nan nan nan nan nan nan nan
70 70 69 69 70 67 67 66 65 64 63 58 55 55 53 nan nan nan nan nan nan nan nan nan nan nan nan nan nan nan nan nan nan nan nan nan nan nan nan nan nan nan nan nan nan nan nan nan nan nan nan nan nan nan nan nan nan nan nan nan nan nan nan nan nan nan nan nan nan nan nan nan nan nan
71 70 72 71 69 67 64 63 64 64 nan 57 53 nan nan nan nan nan nan nan nan nan nan nan nan nan nan nan nan nan nan nan nan nan nan nan nan nan nan nan nan nan nan nan nan nan nan nan nan nan nan nan nan nan nan nan nan nan nan nan nan nan nan nan nan nan nan nan nan nan nan nan nan nan
70 71 73 72 70 66 62 61 nan nan nan 55 nan nan nan nan nan nan nan nan nan nan nan nan nan nan nan nan nan nan nan nan nan nan nan nan nan nan nan nan nan nan nan nan nan nan nan nan nan nan nan nan nan nan nan nan nan nan nan nan nan nan nan nan nan nan nan nan nan nan nan nan nan nan
71 71 74 73 70 65 nan nan nan nan 52 nan nan nan nan nan nan nan nan nan nan nan nan nan nan nan nan nan nan nan nan nan nan nan nan nan nan nan nan nan nan nan nan nan nan nan nan nan nan nan nan nan nan nan nan nan nan nan nan nan nan nan nan nan nan nan nan nan nan nan nan nan nan nan
72 70 71 70 nan nan nan nan nan nan nan nan nan nan nan nan nan nan nan nan nan nan nan nan nan nan nan nan nan nan nan nan nan nan nan nan nan nan nan nan nan nan nan nan nan nan nan nan nan nan nan nan nan nan nan nan nan nan nan nan nan nan nan nan nan nan nan nan nan nan nan nan nan nan
65 64 64 nan nan nan nan nan 50 nan nan nan nan nan nan nan nan nan nan nan nan nan nan nan nan nan nan nan nan nan nan nan nan nan nan nan nan nan nan nan nan nan nan nan nan nan nan nan nan nan nan nan nan nan nan nan nan nan nan nan nan nan nan nan nan nan nan nan nan nan nan nan nan nan
63 64 64 nan nan nan nan nan nan nan nan nan nan nan nan nan nan nan nan nan nan nan nan nan nan nan nan nan nan nan nan nan nan nan nan nan nan nan nan nan nan nan nan nan nan nan nan nan nan nan nan nan nan nan nan nan nan nan nan nan nan nan nan nan nan nan nan nan nan nan nan nan nan nan
67 nan nan nan nan nan nan nan nan nan nan nan nan nan nan nan nan nan nan nan nan nan nan nan nan nan nan nan nan nan nan nan nan nan nan nan nan nan nan nan nan nan nan nan nan nan nan nan nan nan nan nan nan nan nan nan nan nan nan nan nan nan nan nan nan nan nan nan nan nan nan nan nan nan
nan nan nan nan nan nan nan nan nan nan nan nan nan nan nan nan nan nan nan nan nan nan nan nan nan nan nan nan nan nan nan nan nan nan nan nan nan nan nan nan nan nan nan nan nan nan nan nan nan nan nan nan nan nan nan nan nan nan nan nan nan nan nan nan nan nan nan nan nan nan nan nan nan nan
nan nan nan nan nan nan nan nan nan nan nan nan nan nan nan nan nan nan nan nan nan nan nan nan nan nan nan nan nan nan nan nan nan nan nan nan nan nan nan nan nan nan nan nan nan nan nan nan nan nan nan nan nan nan nan nan nan nan nan nan nan nan nan nan nan nan nan nan nan nan nan nan nan nan
nan nan nan nan nan nan nan nan nan nan nan nan nan nan nan nan nan nan nan nan nan nan nan nan nan nan nan nan nan nan nan nan nan nan nan nan nan nan nan nan nan nan nan nan nan nan nan nan nan nan nan nan nan nan nan nan nan nan nan nan nan nan nan nan nan nan nan nan nan nan nan nan nan nan
nan nan nan nan nan nan nan nan nan nan nan nan nan nan nan nan nan nan nan nan nan nan nan nan nan nan nan nan nan nan nan nan nan nan nan nan nan nan nan nan nan nan nan nan nan nan nan nan nan nan nan nan nan nan nan nan nan nan nan nan nan nan nan nan nan nan nan nan nan nan nan nan nan nan
nan nan nan nan nan nan nan nan nan nan nan nan nan nan nan nan nan nan nan nan nan nan nan nan nan nan nan nan nan nan nan nan nan nan nan nan nan nan nan nan nan nan nan nan nan nan nan nan nan nan nan nan nan nan nan nan nan nan nan nan nan nan nan nan nan nan nan nan nan nan nan nan nan nan
Wind_Direction
9 3 358 355 354 350 347 351 351 346 342 345 346 nan nan nan nan nan nan nan nan 328 nan nan 315 319 326 329 329 330 331 325 326 327 328 329 329 326 329 nan 323 319 314 nan nan nan nan 295 291 288 286 284 283 282 280 277 272 267 263 259 256 257 259 261 262 262 261 261 262 262 261 257 253 250
359 358 354 352 352 347 347 351 351 345 343 340 342 345 348 347 nan nan nan nan 334 nan 328 nan 321 322 326 326 325 325 324 317 328 325 326 326 325 320 nan nan nan nan nan nan nan nan nan nan nan nan 286 284 283 281 280 279 277 272 269 263 258 258 257 258 261 263 263 264 263 262 260 257 254 253
355 356 358 353 353 348 352 351 346 342 341 341 339 338 337 340 nan 347 343 nan 334 nan 334 330 nan 327 328 327 326 325 324 322 325 325 324 325 318 nan 323 323 nan nan nan nan nan nan nan nan nan nan nan nan 283 281 279 279 275 272 270 267 263 259 257 258 259 260 261 263 264 264 263 261 259 256
352 356 359 355 354 351 353 352 347 342 340 341 341 337 334 336 340 341 342 346 nan 337 nan 330 328 333 330 329 330 330 325 319 325 323 322 319 318 322 318 320 318 316 nan nan nan nan nan nan nan nan nan nan 286 281 276 274 273 270 267 266 265 262 259 257 256 257 258 259 261 262 263 263 261 257
350 355 357 356 356 353 355 352 350 347 342 343 343 339 336 336 335 339 340 345 346 334 329 333 333 326 329 331 332 331 326 323 322 323 321 319 317 315 314 312 314 nan nan nan nan nan nan nan nan nan nan nan 291 287 282 277 273 nan 269 267 nan nan nan nan nan 258 256 255 256 258 259 259 258 257
346 348 352 355 354 354 358 355 352 349 348 345 345 342 342 340 337 338 339 342 342 340 327 332 332 334 330 330 327 327 325 324 321 321 318 316 314 313 313 313 311 315 316 315 nan nan nan nan nan nan nan nan nan nan nan nan nan nan nan nan nan nan nan nan nan nan nan nan nan nan 254 256 257 257
342 344 348 353 352 350 356 355 352 349 348 346 346 344 343 345 342 338 339 339 340 339 334 329 332 331 329 331 328 326 325 324 321 320 319 317 315 314 314 314 313 316 319 319 317 315 nan nan nan nan nan nan nan nan nan nan nan nan nan nan nan nan nan nan nan nan nan nan nan nan nan nan nan nan
339 344 346 351 351 350 353 353 350 347 345 344 343 344 344 346 347 340 337 339 339 335 337 330 334 331 331 330 330 326 325 326 325 323 319 317 316 315 316 317 317 314 316 318 318 316 nan nan nan nan nan nan nan nan nan nan nan nan nan nan nan nan nan nan nan nan nan nan nan nan nan nan nan nan
337 342 347 347 349 349 351 351 351 347 346 346 344 345 341 342 343 337 334 336 336 337 337 333 329 328 329 328 326 326 328 328 327 324 320 317 316 317 317 317 315 316 320 322 nan nan nan nan nan nan nan nan nan nan nan nan nan nan nan nan nan nan nan nan nan nan nan nan nan nan nan nan nan nan
335 341 345 346 348 350 349 352 353 350 350 346 345 343 337 336 336 336 335 334 336 336 337 333 329 325 328 327 327 328 328 328 327 323 321 320 318 317 318 316 314 313 313 314 314 315 316 316 nan nan nan nan nan nan nan nan nan nan nan nan nan nan nan nan nan nan nan nan nan nan nan nan nan nan
333 338 339 343 348 350 348 351 352 348 347 345 343 336 334 332 333 335 335 334 335 335 334 330 327 326 325 325 326 325 324 325 324 322 321 320 318 318 317 316 314 314 315 316 317 315 308 nan nan 304 nan nan nan nan nan nan nan nan nan nan nan nan nan nan nan nan nan nan nan nan nan nan nan nan
330 333 337 342 346 348 345 346 345 338 340 341 338 331 331 332 333 334 334 335 335 334 331 329 327 326 324 324 325 324 325 326 325 321 319 319 317 317 317 317 315 314 316 318 318 318 317 318 318 nan nan nan nan nan nan nan nan nan nan nan nan nan nan nan nan nan nan nan nan nan nan nan nan nan
324 327 333 340 345 345 346 348 342 339 340 340 338 333 330 330 330 333 333 333 333 331 329 327 325 325 325 326 328 328 327 326 322 318 319 320 319 318 318 317 317 317 319 320 320 318 314 311 308 306 305 303 304 nan nan nan nan nan nan nan nan nan nan nan nan nan nan nan nan nan nan nan nan nan
320 326 331 336 345 344 348 347 346 343 343 345 340 330 327 327 327 331 333 333 331 330 328 328 327 327 328 328 328 327 324 321 319 319 320 320 318 319 319 320 318 316 319 319 319 316 311 309 307 305 302 299 299 nan nan nan nan nan nan nan nan nan nan nan nan nan nan nan nan nan nan nan nan nan
316 322 329 333 338 342 340 341 342 342 343 344 343 337 327 324 329 331 333 334 331 328 327 325 326 327 328 327 323 323 322 321 320 319 319 319 319 319 320 321 320 318 317 318 318 315 309 307 307 306 303 nan nan nan nan nan nan nan nan nan nan nan nan nan nan nan nan nan nan nan nan nan nan nan
310 315 320 328 330 332 338 338 337 340 342 343 343 339 333 331 336 338 336 332 329 328 327 326 327 328 327 324 322 322 321 320 319 319 319 319 319 321 323 324 322 316 316 316 315 316 312 310 311 312 309 307 nan nan nan nan nan nan nan nan nan nan nan nan nan nan nan nan nan nan nan nan nan nan
305 305 312 320 323 323 328 329 331 333 337 342 343 338 334 334 336 339 340 334 329 325 326 328 327 327 324 323 322 320 318 317 320 320 321 321 322 323 325 325 321 317 314 316 318 318 313 313 nan nan nan 309 307 nan nan nan nan nan nan nan nan nan nan nan nan nan nan nan nan nan nan nan nan nan
300 303 307 313 317 319 321 326 328 328 333 333 333 332 331 333 335 336 333 325 319 322 325 326 326 320 319 320 319 317 318 320 321 321 322 322 324 325 325 321 321 319 318 320 nan nan nan nan nan nan nan nan nan nan nan nan nan nan nan nan nan nan nan nan nan nan nan nan nan nan nan nan nan nan
295 300 304 311 312 313 316 318 322 326 330 330 328 329 332 334 334 331 328 326 324 322 323 324 322 318 318 319 318 318 319 321 323 323 323 322 323 323 323 nan 324 322 320 321 nan nan nan nan nan nan nan nan nan nan nan nan nan nan nan nan nan nan nan nan nan nan nan nan nan nan nan nan nan nan
290 295 301 305 307 308 313 313 316 321 325 327 327 326 331 333 331 329 316 315 316 314 319 318 nan nan 312 311 316 316 319 323 nan nan nan nan nan nan nan nan nan nan nan nan nan nan nan nan nan nan nan nan nan nan nan nan nan nan nan nan nan nan nan nan nan nan nan nan nan nan nan nan nan nan
287 292 299 302 301 305 307 307 314 322 323 325 326 327 328 330 330 326 311 302 nan nan nan nan nan nan nan nan nan nan nan 319 nan nan nan nan nan nan nan nan nan nan nan nan nan nan nan nan nan nan nan nan nan nan nan nan nan nan nan nan nan nan nan nan nan nan nan nan nan nan nan nan nan nan
283 289 300 302 301 301 301 303 312 319 321 322 324 324 325 327 328 323 315 312 307 nan nan nan nan nan nan nan nan nan nan nan nan nan nan nan nan nan nan nan nan nan nan nan nan nan nan nan nan nan nan nan nan nan nan nan nan nan nan nan nan nan nan nan nan nan nan nan nan nan nan nan nan nan
282 282 289 303 300 299 297 303 311 317 318 320 319 320 322 325 327 324 318 315 nan nan nan nan nan nan nan nan nan nan nan nan nan nan nan nan nan nan nan nan nan nan nan nan nan nan nan nan nan nan nan nan nan nan nan nan nan nan nan nan nan nan nan nan nan nan nan nan nan nan nan nan nan nan
276 280 285 293 302 298 295 303 310 316 318 316 315 315 320 323 326 322 318 314 312 nan nan nan nan nan nan nan nan nan nan nan nan nan nan nan nan nan nan nan nan nan nan nan nan nan nan nan nan nan nan nan nan nan nan nan nan nan nan nan nan nan nan nan nan nan nan nan nan nan nan nan nan nan
277 277 281 284 292 295 298 304 310 312 317 314 310 314 319 321 317 316 315 nan nan nan nan nan nan nan nan nan nan nan nan nan nan nan nan nan nan nan nan nan nan nan nan nan nan nan nan nan nan nan nan nan nan nan nan nan nan nan nan nan nan nan nan nan nan nan nan nan nan nan nan nan nan nan
273 273 276 280 286 295 296 302 306 311 314 310 307 310 311 305 nan 314 313 nan nan nan nan nan nan nan nan nan nan nan nan nan nan nan nan nan nan nan nan nan nan nan nan 323 nan nan nan nan nan nan nan nan nan nan nan nan nan nan nan nan nan nan nan nan nan nan nan 283 281 nan 274 nan nan nan
272 267 273 277 285 292 294 297 301 305 309 305 300 299 302 307 311 313 nan nan nan nan nan nan nan nan nan nan nan nan nan nan nan nan nan nan nan nan nan nan nan nan nan nan nan nan nan nan nan nan nan nan nan nan nan nan nan nan nan nan nan nan nan nan nan nan nan 283 282 nan nan nan nan nan
271 271 273 273 284 288 289 290 291 295 300 297 294 296 301 305 309 311 nan nan nan nan nan nan nan nan nan nan nan nan nan nan nan nan nan nan nan nan nan nan nan nan nan nan nan nan nan nan nan nan nan nan nan nan nan nan nan nan nan nan nan nan nan nan nan nan 290 nan nan nan 276 274 276 nan
270 272 274 275 282 284 285 285 285 287 292 291 293 296 301 303 305 310 nan nan nan nan nan nan nan nan nan nan nan nan nan nan nan nan nan nan nan nan nan nan nan nan nan nan nan nan nan nan nan nan nan nan nan nan nan nan nan nan nan nan nan nan nan nan nan nan nan nan nan nan 275 273 nan nan
270 271 273 277 277 277 279 278 280 282 282 288 294 297 299 301 304 nan nan nan nan nan nan nan nan nan nan nan nan nan nan nan nan nan nan nan nan nan nan nan nan nan nan nan nan nan nan nan nan nan nan nan nan nan nan nan nan nan nan nan nan nan nan nan nan nan nan nan nan nan nan nan nan nan
263 268 270 271 274 274 278 276 278 277 277 283 293 295 297 299 300 nan 307 nan 305 nan nan nan nan nan nan nan nan nan nan nan nan nan nan nan nan nan nan nan nan nan nan nan nan nan nan nan nan nan nan nan nan nan nan nan nan nan nan nan nan nan nan nan nan nan nan nan nan nan nan nan nan nan
262 264 267 269 267 269 271 273 274 272 270 280 293 296 296 297 nan nan nan nan nan nan nan nan nan nan nan nan nan nan nan nan nan nan nan nan nan nan nan nan nan nan nan nan nan nan nan nan nan nan nan nan nan nan nan nan nan nan nan nan nan nan nan nan nan nan nan nan nan nan nan nan nan nan
262 263 264 264 267 268 271 273 276 276 276 282 291 293 293 nan nan nan nan nan nan nan nan nan nan nan nan nan nan nan nan nan nan nan nan nan nan nan nan nan nan nan nan nan nan nan nan nan nan nan nan nan nan nan nan nan nan nan nan nan nan nan nan nan nan nan nan nan nan nan nan nan nan nan
261 261 263 264 265 268 271 275 278 281 nan 285 289 nan nan nan nan nan nan nan nan nan nan nan nan nan nan nan nan nan nan nan nan nan nan nan nan nan nan nan nan nan nan nan nan nan nan nan nan nan nan nan nan nan nan nan nan nan nan nan nan nan nan nan nan nan nan nan nan nan nan nan nan nan
260 261 261 263 265 267 273 278 nan nan nan 285 nan nan nan nan nan nan nan nan nan nan nan nan nan nan nan nan nan nan nan nan nan nan nan nan nan nan nan nan nan nan nan nan nan nan nan nan nan nan nan nan nan nan nan nan nan nan nan nan nan nan nan nan nan nan nan nan nan nan nan nan nan nan
257 257 260 264 268 269 nan nan nan nan 278 nan nan nan nan nan nan nan nan nan nan nan nan nan nan nan nan nan nan nan nan nan nan nan nan nan nan nan nan nan nan nan nan nan nan nan nan nan nan nan nan nan nan nan nan nan nan nan nan nan nan nan nan nan nan nan nan nan nan nan nan nan nan nan
259 259 263 268 nan nan nan nan nan nan nan nan nan nan nan nan nan nan nan nan nan nan nan nan nan nan nan nan nan nan nan nan nan nan nan nan nan nan nan nan nan nan nan nan nan nan nan nan nan nan nan nan nan nan nan nan nan nan nan nan nan nan nan nan nan nan nan nan nan nan nan nan nan nan
259 263 266 nan nan nan nan nan 272 nan nan nan nan nan nan nan nan nan nan nan nan nan nan nan nan nan nan nan nan nan nan nan nan nan nan nan nan nan nan nan nan nan nan nan nan nan nan nan nan nan nan nan nan nan nan nan nan nan nan nan nan nan nan nan nan nan nan nan nan nan nan nan nan nan
266 268 268 nan nan nan nan nan nan nan nan nan nan nan nan nan nan nan nan nan nan nan nan nan nan nan nan nan nan nan nan nan nan nan nan nan nan nan nan nan nan nan nan nan nan nan nan nan nan nan nan nan nan nan nan nan nan nan nan nan nan nan nan nan nan nan nan nan nan nan nan nan nan nan
267 nan nan nan nan nan nan nan nan nan nan nan nan nan nan nan nan nan nan nan nan nan nan nan nan nan nan nan nan nan nan nan nan nan nan nan nan nan nan nan nan nan nan nan nan nan nan nan nan nan nan nan nan nan nan nan nan nan nan nan nan nan nan nan nan nan nan nan nan nan nan nan nan nan
nan nan nan nan nan nan nan nan nan nan nan nan nan nan nan nan nan nan nan nan nan nan nan nan nan nan nan nan nan nan nan nan nan nan nan nan nan nan nan nan nan nan nan nan nan nan nan nan nan nan nan nan nan nan nan nan nan nan nan nan nan nan nan nan nan nan nan nan nan nan nan nan nan nan
nan nan nan nan nan nan nan nan nan nan nan nan nan nan nan nan nan nan nan nan nan nan nan nan nan nan nan nan nan nan nan nan nan nan nan nan nan nan nan nan nan nan nan nan nan nan nan nan nan nan nan nan nan nan nan nan nan nan nan nan nan nan nan nan nan nan nan nan nan nan nan nan nan nan
nan nan nan nan nan nan nan nan nan nan nan nan nan nan nan nan nan nan nan nan nan nan nan nan nan nan nan nan nan nan nan nan nan nan nan nan nan nan nan nan nan nan nan nan nan nan nan nan nan nan nan nan nan nan nan nan nan nan nan nan nan nan nan nan nan nan nan nan nan nan nan nan nan nan
nan nan nan nan nan nan nan nan nan nan nan nan nan nan nan nan nan nan nan nan nan nan nan nan nan nan nan nan nan nan nan nan nan nan nan nan nan nan nan nan nan nan nan nan nan nan nan nan nan nan nan nan nan nan nan nan nan nan nan nan nan nan nan nan nan nan nan nan nan nan nan nan nan nan
nan nan nan nan nan nan nan nan nan nan nan nan nan nan nan nan nan nan nan nan nan nan nan nan nan nan nan nan nan nan nan nan nan nan nan nan nan nan nan nan nan nan nan nan nan nan nan nan nan nan nan nan nan nan nan nan nan nan nan nan nan nan nan nan nan nan nan nan nan nan nan nan nan nan